This is the latest recevied weather packets stored in our database for station/object W5ADC. If no packets are shown the sender has not sent any weather packets the latest 10 day(s).
| Time | Temp. | Humidity | Pressure | Rain* | Wind** | Luminosity | Snow |
|---|---|---|---|---|---|---|---|
| 1778093305 | 13.89° C | 85% | 1011 hPa | 0 mm | - | 197 W/m² | - |
| 1778093003 | 13.89° C | 85% | 1010.6 hPa | 0 mm | - | 178 W/m² | - |
| 1778092701 | 13.89° C | 86% | 1010.3 hPa | 0 mm | - | 182 W/m² | - |
| 1778092395 | 13.33° C | 86% | 1009.7 hPa | 0 mm | - | 193 W/m² | - |
| 1778092093 | 13.89° C | 86% | 1009.7 hPa | 0 mm | - | 192 W/m² | - |
| 1778091790 | 13.89° C | 85% | 1009.5 hPa | 0 mm | - | 202 W/m² | - |
| 1778091488 | 14.44° C | 85% | 1009.5 hPa | 0 mm | - | 313 W/m² | - |
| 1778091185 | 14.44° C | 86% | 1009.3 hPa | 0 mm | - | 377 W/m² | - |
| 1778090882 | 13.89° C | 87% | 1009.5 hPa | 0 mm | - | 350 W/m² | - |
| 1778090578 | 13.33° C | 89% | 1009.8 hPa | 0 mm | - | 259 W/m² | - |
| 1778090274 | 13.33° C | 89% | 1010.1 hPa | 0 mm | - | 212 W/m² | - |
| 1778089971 | 12.78° C | 89% | 1010 hPa | 0 mm | - | 188 W/m² | - |
| 1778089669 | 12.78° C | 90% | 1010.2 hPa | 0 mm | - | 209 W/m² | - |
| 1778089366 | 12.78° C | 90% | 1010.6 hPa | 0 mm | - | 174 W/m² | - |
| 1778089063 | 12.22° C | 90% | 1010.3 hPa | 0 mm | - | 202 W/m² | - |
| 1778088760 | 12.22° C | 91% | 1010.1 hPa | 0 mm | - | 195 W/m² | - |
| 1778088457 | 12.22° C | 93% | 1010.2 hPa | 0 mm | - | 229 W/m² | - |
| 1778088153 | 11.67° C | 98% | 1010.7 hPa | 0 mm | - | 182 W/m² | - |
| 1778087851 | 11.67° C | 99% | 1010.2 hPa | 0 mm | - | 176 W/m² | - |
| 1778087548 | 11.67° C | 99% | 1010.5 hPa | 0 mm | - | 143 W/m² | - |
| 1778087246 | 11.67° C | 99% | 1010.5 hPa | 0 mm | - | 90 W/m² | - |
| 1778086942 | 11.11° C | 99% | 1010.1 hPa | 0 mm | - | 113 W/m² | - |
| 1778086641 | 11.67° C | 99% | 1010.3 hPa | 0 mm | - | 132 W/m² | - |
| 1778086337 | 11.67° C | 99% | 1010.7 hPa | 0 mm | - | 123 W/m² | - |
| 1778086035 | 11.11° C | 99% | 1010.8 hPa | 0 mm | - | 123 W/m² | - |
* Rain latest hour (hover to see other rain measurements)
** Current wind speed in m/s (hover to see current wind gust speed)